Weather History for Concordia, KS

Change the Weather History Date:

Saturday, August 23, 2014

  Actual Average Record
Temperature  
Mean Temperature 83 °F 76 °F  
Max Temperature 94 °F 88 °F 105 °F (1936)
Min Temperature 72 °F 65 °F 41 °F (1891)
Degree Days  
Heating Degree Days 0 0  
Month to date heating degree days 0 0  
Since 1 June heating degree days 3 13  
Since 1 July heating degree days 2 0  
Cooling Degree Days 18 11  
Month to date cooling degree days 289 294  
Year to date cooling degree days 1113 1084  
Since 1 June cooling degree days 938 995  
Growing Degree Days 32 (Base 50)    
Moisture  
Dew Point 67 °F    
Average Humidity 70    
Maximum Humidity 100    
Minimum Humidity 39    
Precipitation  
Precipitation 0.00 in 0.10 in 2.46 in (1941)
Month to date precipitation 4.88 2.38  
Year to date precipitation 18.55 20.34  
Snow  
Snow 0.00 in 0.00 in T in (1941)
Month to date snowfall 0.0 0.0  
Year to date snowfall 16.9 13.7  
Since 1 July snowfall 0.0 0.0  
Snow Depth 0.00 in    
Sea Level Pressure  
Sea Level Pressure 29.78 in    
Wind  
Wind Speed 11 mph (SE)    
Max Wind Speed 22 mph    
Max Gust Speed 30 mph    
Visibility 8 miles    
Events      
T = Trace of Precipitation, MM = Missing Value Source: NWS Daily Summary

Daily Weather History Graph

Daily Weather History Graph

Search for Another Location

Airport:

Trip Planner

Search our weather history database for the weather conditions in past years. The results will help you decide how hot, cold, wet, or windy it might be!

Date:

Astronomy

Aug. 23, 2014 Rise Set
Actual Time 6:50 AM CDT 8:15 PM CDT
Civil Twilight 6:22 AM CDT 8:43 PM CDT
Nautical Twilight 5:48 AM CDT 9:16 PM CDT
Astronomical Twilight 5:12 AM CDT 9:52 PM CDT
Moon 5:08 AM CDT (8/23) 7:00 PM CDT (8/23)
Length of Visible Light 14h 20m
Length of Day
13h 24m
Waning Crescent, 3% of the Moon is Illuminated
Aug 23
Waning Crescent
Aug 25
New
Sep 2
First Quarter
Sep 8
Full
Sep 15
Last Quarter

Hourly Weather History & Observations

Time (CDT) Temp. Heat Index Dew Point Humidity Pressure Visibility Wind Dir Wind Speed Gust Speed Precip Events Conditions
12:55 AM 75.0 °F - 73.0 °F 94% 29.84 in 10.0 mi NE 6.9 mph - N/A   Clear
1:55 AM 75.0 °F - 73.0 °F 94% 29.84 in 10.0 mi East 3.5 mph - N/A   Clear
2:55 AM 73.9 °F - 73.0 °F 97% 29.83 in 10.0 mi ENE 4.6 mph - N/A   Partly Cloudy
4:55 AM 72.0 °F - 72.0 °F 100% 29.80 in 5.0 mi NE 6.9 mph - N/A   Scattered Clouds
5:05 AM 72.0 °F - 72.0 °F 100% 29.85 in 4.0 mi ENE 5.8 mph - N/A   Mostly Cloudy
6:55 AM 72.0 °F - 72.0 °F 100% 29.81 in 3.0 mi East 9.2 mph - N/A   Overcast
7:18 AM 72.0 °F - 72.0 °F 100% 29.86 in 2.5 mi ESE 6.9 mph - N/A   Overcast
7:50 AM 71.6 °F - 71.6 °F 100% 29.85 in 3.0 mi SE 6.9 mph - N/A   Scattered Clouds
7:55 AM 72.0 °F - 72.0 °F 100% 29.81 in 4.0 mi SE 5.8 mph - N/A   Scattered Clouds
8:55 AM 77.0 °F - 68.0 °F 74% 29.83 in 10.0 mi South 6.9 mph - N/A   Clear
9:55 AM 80.1 °F 82.1 °F 66.0 °F 62% 29.83 in 10.0 mi South 9.2 mph - N/A   Clear
10:55 AM 82.9 °F 85.8 °F 68.0 °F 60% 29.81 in 10.0 mi SSE 9.2 mph - N/A   Clear
11:55 AM 86.0 °F 90.1 °F 69.1 °F 57% 29.80 in 10.0 mi SSE 9.2 mph - N/A   Clear
12:55 PM 90.0 °F 92.8 °F 66.9 °F 46% 29.78 in 10.0 mi South 11.5 mph 21.9 mph N/A   Clear
1:55 PM 91.0 °F 95.2 °F 68.0 °F 47% 29.76 in 10.0 mi SSE 11.5 mph 20.7 mph N/A   Clear
2:55 PM 93.0 °F 96.4 °F 66.9 °F 42% 29.74 in 10.0 mi South 12.7 mph 24.2 mph N/A   Clear
3:55 PM 93.9 °F 96.1 °F 64.9 °F 38% 29.73 in 10.0 mi SSE 19.6 mph 24.2 mph N/A   Clear
4:55 PM 93.9 °F 95.6 °F 64.0 °F 37% 29.71 in 10.0 mi South 13.8 mph 25.3 mph N/A   Clear
5:55 PM 93.0 °F 95.0 °F 64.9 °F 39% 29.71 in 10.0 mi South 12.7 mph - N/A   Partly Cloudy
6:55 PM 89.1 °F 91.0 °F 64.9 °F 45% 29.70 in 10.0 mi South 10.4 mph - N/A   Clear
7:55 PM 84.0 °F 84.5 °F 62.1 °F 47% 29.70 in 10.0 mi South 9.2 mph - N/A   Clear
8:55 PM 82.9 °F 82.4 °F 57.0 °F 41% 29.71 in 10.0 mi South 11.5 mph - N/A   Clear
9:55 PM 82.0 °F 81.6 °F 55.9 °F 41% 29.73 in 10.0 mi South 11.5 mph - N/A   Clear
10:55 PM 81.0 °F 81.0 °F 57.0 °F 44% 29.74 in 10.0 mi South 13.8 mph - N/A   Clear
11:55 PM 82.0 °F 82.1 °F 59.0 °F 45% 29.73 in 10.0 mi South 18.4 mph - N/A   Clear